Regional Weather Roundup
Issued by NWS Bismarck, ND

Home | Current Version | Previous Version | Text Only | Print | Product List | Glossary On
Versions: 1 2 3 4 5 6 7 8 9 10 11 12 13 14 15 16 17 18 19 20 21 22 23 24 25 26 27 28 29 30 31 32 33 34 35 36 37 38 39 40 41 42 43 44 45 46 47 48 49 50
000
ASUS43 KBIS 080510
RWRBIS

NWR BROADCAST TEXT
NATIONAL WEATHER SERVICE BISMARCK ND
1100 PM CST SUN FEB 07 2016

NOTE: "FAIR" INDICATES FEW OR NO CLOUDS BELOW 12,000 FEET WITH NO
SIGNIFICANT WEATHER AND/OR OBSTRUCTIONS TO VISIBILITY.


CITY           SKY/WX    TMP DP  RH WIND       PRES   REMARKS
WILLISTON      CLEAR     28  19  69 NW21G32   30.30S WCI  15
MINOT          FLURRIES  28  16  60 NW28G38   30.16S WCI  13
MINOT AFB      MOCLDY    27  19  73 NW26G38   30.16R WCI  11
BISMARCK       CLEAR     30  17  58 NW29G41   30.16S WCI  15
DICKINSON      CLEAR     26  14  60 NW21      30.23R WCI  12
GARRISON         N/A     26  18  71 NW35G41   30.17S WCI   9
HETTINGER ARPT CLEAR     27  15  61 NW21G32   30.25R WCI  13
JAMESTOWN      CLOUDY    22  15  75 N22G30    30.05R WCI   6
BEACH          FAIR      25  16  68 NW17G24   30.33F WCI  11
CARRINGTON     CLOUDY    23  21  93 N20G29    30.08S WCI   8
HAZEN          FAIR      27  18  69 NW23G32   30.23R WCI  12
LINTON         MOCLDY    27  19  74 NW20G31   30.15R WCI  13
MANDAN         FAIR      27  18  69 NW26G37   30.16S WCI  11
OAKES          FLURRIES  21  18  86 N25G32    30.04R WCI   4
RUGBY          CLOUDY    23  18  80 NW26G33   30.10S WCI   6
STANLEY        FAIR      25  21  86 NW18G25   30.22S WCI  11
TIOGA          FAIR      25  19  80 NW22G35   30.28S WCI  10
WATFORD CITY   FAIR      27  18  69 NW16G22   30.29S WCI  14
$$

CITY           SKY/WX    TMP DP  RH WIND       PRES   REMARKS
GRAND FORKS    LGT SNOW  14   9  80 N26G36    30.05R BLWGSNOWWCI  -6
GRAND FORKS AF LGT SNOW  14  10  85 N16       30.05R WCI  -2
DEVILS LAKE    FLURRIES  19  13  77 N30G37    30.06S WCI   0
FARGO          LGT SNOW  15  11  83 N28G36    30.03R VSB 3/4 WCI  -5
CAVALIER       LGT SNOW  14  10  85 N26G33    30.08R VSB 1   WCI  -6
GRAFTON        LGT SNOW  12  10  92 N25G36    30.08S WCI  -8
GWINNER        MOCLDY    23  16  74 N31G38    30.03R WCI   5
LANGDON        SNOW      16  12  86 N31G46    30.04R VSB 1/2 WCI  -5
ROLLA          FLURRIES  18  14  86 N26G39    30.08R WCI  -1
WALHALLA       LGT SNOW  14  14 100 N23G30    30.09R WCI  -5
$$

CITY           SKY/WX    TMP DP  RH WIND       PRES   REMARKS
ABERDEEN       CLOUDY    28  19  69 N18G26    30.06R WCI  15
MOBRIDGE       MOCLDY    32  19  58 N21G32    30.11R WCI  20
BUFFALO          N/A     28  14  55 NW28G36   30.22S WCI  13
RAPID CITY     CLEAR     32   9  38 NW32G45   30.28R WCI  17
GLASGOW        CLEAR     24  15  68 S3        30.40R
SIDNEY         CLEAR     28  18  64 NW15      30.33F WCI  17
WOLF POINT     CLEAR     29  17  61 NW13      30.39S WCI  19
GLENDIVE       CLEAR     25  16  68 NW7       30.38R WCI  17
MILES CITY     CLOUDY    27  15  61 W10       30.41S WCI  17
BAKER          CLOUDY    27  15  61 NW20      30.32S WCI  13
$$

CITY           SKY/WX    TMP DP  RH WIND       PRES   REMARKS
BILLINGS       CLOUDY    34  10  37 SE3       30.44S
GREAT FALLS    CLOUDY    31  16  54 SW10      30.42R
REGINA         CLEAR     21  18  86 NW12      30.29R WCI   9
$$




USA.gov is the U.S. government's official web portal to all federal, state and local government web resources and services.